Total_Precipitation_Accumulation
2.39 2.37 2.29 2.24 2.09 2.18 2.53 2.79 2.66 2.67 2.58 2.41 2.18 2.00 1.87 1.76 1.67 1.78 1.94 2.11 2.11 2.13 2.28 2.38 2.21 2.00 1.88 1.74 1.58 1.41 1.31 1.29 1.17 0.96 0.83 0.73 0.63 0.62 0.65 0.70 0.70 0.61 0.58
2.80 2.94 2.81 2.66 2.36 2.26 2.33 2.61 2.67 2.89 2.82 2.63 2.05 1.93 1.93 1.93 1.94 1.89 2.05 2.53 2.52 2.14 2.09 2.29 2.42 2.38 2.22 2.05 1.88 1.68 1.54 1.44 1.23 0.98 0.90 0.84 0.73 0.67 0.73 0.80 0.80 0.65 0.52
2.99 2.97 2.79 2.47 2.24 2.23 2.39 2.36 2.36 2.65 2.48 2.35 2.21 2.27 2.25 2.16 2.01 1.98 2.08 2.50 2.49 2.13 1.96 1.98 2.23 2.40 2.49 2.55 2.44 2.33 2.08 1.75 1.45 1.16 0.99 0.85 0.74 0.63 0.64 0.76 0.83 0.73 0.56
2.58 2.67 2.35 2.03 2.11 2.26 2.35 2.47 2.36 2.45 2.49 2.58 2.61 2.58 2.45 2.29 1.91 1.78 1.72 1.81 2.02 1.76 1.85 2.02 2.06 2.08 2.41 2.81 2.97 3.15 2.86 2.27 1.77 1.40 1.15 0.95 0.80 0.66 0.60 0.65 0.74 0.72 0.59
1.99 2.17 2.02 1.96 1.99 2.17 2.19 2.04 2.35 2.58 2.58 2.61 2.45 2.50 2.16 1.99 1.77 1.52 1.49 1.46 1.57 1.69 1.70 1.79 1.88 1.89 2.30 2.94 3.42 3.79 3.71 3.12 2.44 1.98 1.67 1.32 1.11 0.86 0.71 0.65 0.66 0.67 0.61
1.81 2.02 1.94 1.87 1.91 2.08 2.17 2.29 2.57 2.68 2.42 2.37 2.19 2.07 1.81 1.48 1.43 1.37 1.23 1.28 1.37 1.34 1.46 1.64 1.88 1.70 2.11 2.62 3.18 3.72 4.12 3.92 3.17 2.63 2.38 2.09 1.80 1.40 1.01 0.79 0.70 0.67 0.62
1.91 2.10 1.94 2.00 1.86 1.93 1.95 2.07 2.31 2.42 2.08 2.21 2.65 2.26 1.67 1.34 1.35 1.22 1.18 1.25 1.29 1.30 1.47 1.74 1.88 1.94 2.06 2.12 2.34 2.90 3.73 4.13 3.83 3.26 2.92 2.64 2.38 1.93 1.41 1.11 0.91 0.76 0.70
1.85 1.85 1.98 1.86 1.82 1.93 1.93 2.01 2.20 2.20 1.94 2.14 2.61 2.71 2.17 1.80 1.52 1.13 1.12 1.19 1.31 1.50 1.54 1.57 1.94 2.23 2.26 2.59 2.20 2.21 2.88 3.60 3.94 3.75 3.39 2.87 2.52 2.16 1.76 1.50 1.22 0.99 0.86
1.65 1.66 1.67 1.74 1.85 1.68 1.80 1.97 2.11 2.23 2.11 2.03 2.31 2.71 2.49 2.14 1.82 1.45 1.33 1.42 1.56 1.70 1.74 1.89 2.00 2.21 2.34 2.78 2.70 2.50 2.46 2.71 3.41 4.06 4.03 3.34 2.58 2.10 1.95 1.91 1.78 1.44 1.18
1.52 1.53 1.52 1.67 1.75 1.69 1.89 1.66 1.78 2.07 2.27 2.07 2.08 2.13 2.15 2.34 2.33 1.94 1.60 1.50 1.62 1.76 1.83 1.83 1.89 2.16 2.33 2.61 2.91 2.66 2.37 2.21 2.50 3.30 3.88 3.80 3.16 2.42 2.08 2.16 2.48 2.33 1.85
1.51 1.35 1.45 1.59 1.68 1.72 1.80 1.75 1.86 1.85 1.93 1.96 2.00 1.99 2.08 2.29 2.18 2.12 1.95 1.76 1.69 1.54 1.59 1.70 1.86 2.06 2.15 2.35 2.68 2.44 2.37 2.14 2.06 2.31 2.84 3.23 3.28 2.94 2.61 2.63 3.11 3.45 3.19
1.55 1.39 1.42 1.62 1.68 1.72 1.74 1.78 1.78 1.73 1.81 1.90 1.95 1.97 2.10 2.10 2.04 2.15 2.06 1.88 1.78 1.52 1.52 1.58 1.76 1.90 1.92 2.01 1.86 1.86 1.91 2.02 1.96 1.83 1.89 2.15 2.53 2.81 2.86 3.08 3.57 4.09 4.37
1.45 1.43 1.41 1.66 1.76 1.74 1.72 1.81 1.79 1.77 1.88 1.94 1.96 1.99 2.04 2.00 1.99 2.16 2.21 1.95 1.81 1.64 1.73 1.71 1.70 1.82 1.78 1.95 1.90 1.74 1.64 1.75 1.65 1.55 1.48 1.53 1.78 2.13 2.44 2.73 3.13 3.62 4.10
1.38 1.59 1.70 1.72 1.69 1.73 1.75 1.98 1.83 1.84 1.92 1.95 1.88 2.17 2.12 1.98 2.16 2.36 2.52 2.56 2.25 2.04 2.05 1.87 1.70 1.69 1.71 1.75 1.80 1.81 1.69 1.55 1.36 1.26 1.24 1.28 1.38 1.59 1.83 2.05 2.29 2.52 2.78
1.41 1.59 1.74 1.83 1.74 1.72 1.82 2.03 1.99 2.03 2.13 2.04 2.04 2.27 2.22 2.11 2.16 2.23 2.49 2.75 2.77 2.51 2.38 2.17 1.93 1.83 1.77 1.77 1.88 1.72 1.69 1.71 1.46 1.28 1.24 1.22 1.25 1.33 1.39 1.41 1.48 1.59 1.75
1.56 1.61 1.57 1.62 1.61 1.60 1.73 2.02 2.04 2.09 2.24 2.19 2.17 2.21 2.22 2.12 2.19 2.17 2.29 2.62 2.89 2.90 2.60 2.05 1.98 1.89 1.81 1.63 1.75 1.59 1.62 1.73 1.50 1.31 1.18 1.11 1.10 1.13 1.19 1.27 1.37 1.41 1.48
1.63 1.57 1.52 1.55 1.52 1.45 1.52 1.71 1.83 2.03 2.16 2.21 2.19 2.24 2.24 2.33 2.36 2.25 2.34 2.46 2.68 2.85 2.53 2.05 2.11 2.25 2.20 1.99 1.81 1.64 1.51 1.47 1.43 1.40 1.16 1.10 1.11 1.10 1.17 1.24 1.30 1.34 1.40
1.69 1.66 1.61 1.58 1.45 1.42 1.51 1.64 1.78 1.95 2.10 2.21 2.31 2.39 2.19 2.26 2.39 2.33 2.33 2.36 2.46 2.73 2.64 2.51 2.46 2.51 2.42 2.17 1.94 1.68 1.39 1.27 1.32 1.53 1.29 1.15 1.10 1.13 1.17 1.19 1.14 1.14 1.16
1.66 1.70 1.71 1.64 1.57 1.59 1.68 1.74 1.81 1.95 2.08 2.15 2.24 2.23 2.18 2.31 2.23 2.26 2.33 2.31 2.30 2.37 2.50 2.47 2.36 2.45 2.37 2.15 1.97 1.70 1.47 1.44 1.31 1.34 1.28 1.19 1.14 1.12 1.13 1.09 1.03 1.01 1.03
1.51 1.54 1.54 1.62 1.64 1.69 1.72 1.73 1.73 1.78 1.86 1.93 1.91 1.82 1.75 1.82 1.89 2.04 2.05 2.06 2.14 2.23 2.32 2.27 2.25 2.34 2.36 2.39 2.22 1.91 1.73 1.57 1.41 1.23 1.23 1.22 1.21 1.17 1.12 1.04 0.95 0.93 0.97
1.38 1.54 1.59 1.67 1.72 1.69 1.60 1.65 1.66 1.58 1.76 1.73 1.59 1.53 1.54 1.63 1.65 1.73 1.66 1.75 1.92 2.00 2.08 2.17 2.25 2.42 2.44 2.56 2.41 2.12 1.98 1.84 1.57 1.35 1.29 1.21 1.19 1.14 1.12 1.12 1.06 0.97 0.91
1.45 1.55 1.61 1.71 1.75 1.60 1.64 1.68 1.69 1.67 1.72 1.68 1.63 1.56 1.44 1.43 1.41 1.45 1.49 1.53 1.67 1.81 1.98 2.15 2.22 2.31 2.38 2.35 2.30 2.18 2.06 1.89 1.62 1.46 1.57 1.53 1.34 1.31 1.42 1.37 1.28 1.03 0.88
1.53 1.60 1.73 1.79 1.77 1.79 1.70 1.57 1.59 1.57 1.63 1.67 1.68 1.67 1.41 1.24 1.34 1.32 1.44 1.42 1.39 1.45 1.55 1.72 1.83 1.97 2.16 2.25 2.34 2.26 2.24 2.11 1.85 1.61 1.54 1.43 1.34 1.39 1.57 1.70 1.46 1.05 0.93
1.66 1.79 1.82 1.73 1.69 1.71 1.63 1.39 1.33 1.25 1.37 1.48 1.56 1.62 1.61 1.50 1.46 1.47 1.52 1.52 1.45 1.43 1.51 1.51 1.56 1.76 2.09 2.37 2.41 2.36 2.38 2.28 2.00 1.67 1.56 1.46 1.32 1.30 1.19 1.20 1.27 1.02 0.86
1.91 1.97 2.00 1.95 1.82 1.78 1.58 1.28 1.17 1.14 1.29 1.37 1.43 1.43 1.42 1.33 1.33 1.25 1.28 1.35 1.37 1.33 1.32 1.33 1.36 1.48 1.74 2.10 2.29 2.32 2.41 2.32 2.11 1.79 1.59 1.54 1.34 1.26 1.16 1.04 1.06 1.12 0.96
2.11 2.13 2.02 1.89 1.78 1.75 1.67 1.35 1.18 1.15 1.29 1.38 1.47 1.46 1.42 1.35 1.30 1.16 1.12 1.19 1.19 1.19 1.25 1.26 1.24 1.23 1.33 1.63 1.94 1.95 2.02 2.15 1.95 1.72 1.38 1.31 1.24 1.18 1.17 1.02 0.91 0.92 0.94